Wind_Speed
13 18 16 13 13 12 17 15 14 13 18 15 11 9 12 10 9 11 17 11 11 12 11 9 7 6 5 6 6 6 6 5 3 3 5 6 6 7 7 9 9 10 11 13 13 13 14 15 15
15 15 13 12 6 9 9 12 10 11 13 11 12 7 7 12 5 10 9 15 11 10 11 10 8 6 5 4 3 2 1 2 2 4 5 6 7 8 8 9 10 11 12 13 13 12 13 14 14
12 12 9 7 10 11 10 9 10 10 9 10 7 8 5 6 4 9 4 8 12 12 9 7 6 6 6 4 2 1 2 3 4 4 5 5 7 9 10 10 11 12 13 13 14 14 14 14 13
10 9 9 12 14 13 9 7 11 9 9 9 8 11 12 10 10 13 10 11 16 11 11 8 7 6 5 4 3 2 3 3 4 5 6 7 8 10 8 9 11 11 12 12 12 12 13 13 13
3 10 13 18 17 12 12 7 7 9 10 10 9 8 10 12 12 20 14 14 11 11 12 10 5 6 4 5 4 4 4 4 3 4 3 3 5 5 5 6 7 7 7 8 10 10 9 8 7
7 9 17 19 14 11 9 9 7 9 12 10 10 7 8 9 11 17 14 13 12 12 9 7 5 5 6 5 6 6 6 6 6 5 5 5 6 3 3 5 8 9 12 13 16 11 15 7 4
6 8 16 17 18 14 12 7 6 6 8 10 7 5 8 11 9 8 14 10 10 9 7 4 6 6 7 8 9 9 10 9 8 7 7 7 5 4 7 6 9 10 14 15 15 13 15 15 12
9 12 16 17 17 17 15 11 6 4 3 5 7 5 8 9 9 7 14 12 11 9 4 5 6 6 7 8 7 8 9 9 9 10 11 9 9 8 10 9 13 13 14 13 14 16 14 12 16
5 10 16 17 17 13 12 10 11 9 5 2 5 6 6 9 7 6 10 12 11 7 5 10 8 4 3 3 1 3 4 6 9 11 14 11 13 8 10 13 17 14 7 10 11 17 10 3 6
4 10 16 19 14 10 6 8 11 9 7 5 3 5 6 7 8 7 5 7 8 7 13 11 9 7 7 6 4 1 2 5 7 8 10 9 7 7 10 13 8 5 10 12 9 14 18 13 12
9 14 15 15 13 8 9 11 10 10 9 7 3 4 6 9 8 8 6 6 5 13 13 10 7 6 6 8 5 8 10 8 9 8 10 10 9 8 9 12 11 8 11 8 11 13 15 14 13
13 14 13 14 13 10 8 9 8 9 8 8 7 4 7 8 10 9 9 13 11 11 5 9 8 8 7 3 4 3 8 11 12 12 9 9 11 11 12 20 21 13 8 8 10 10 12 11 13
13 12 13 12 13 12 8 10 8 9 8 9 8 7 9 10 13 11 11 12 10 9 12 12 13 10 9 6 9 10 12 13 13 11 8 9 12 11 12 15 15 17 15 11 14 14 14 15 15
12 7 6 11 11 15 12 13 10 10 9 12 10 11 12 11 13 12 12 12 15 13 11 11 12 15 11 12 15 15 14 13 12 11 9 7 6 8 11 12 14 15 15 15 13 13 13 14 12
12 9 6 9 10 16 13 13 12 10 10 11 12 12 14 16 16 16 16 16 16 15 15 16 19 17 15 16 17 16 16 16 17 19 14 5 2 4 7 10 12 11 11 11 11 13 15 13 13
11 10 9 6 3 10 12 15 14 8 8 12 13 13 14 15 17 18 18 17 17 16 18 20 21 19 19 18 16 18 18 17 19 24 26 19 7 9 12 12 12 12 13 12 12 15 16 16 16
6 7 10 8 5 7 11 16 15 11 6 11 16 17 17 18 20 21 20 19 18 18 18 20 19 20 18 17 18 18 17 19 19 22 22 20 18 15 11 12 10 13 15 16 16 17 17 17 17
8 8 12 12 12 12 13 14 16 13 9 10 15 17 19 20 20 21 20 19 18 15 18 18 18 19 17 18 16 18 17 19 19 20 19 19 17 15 13 14 13 13 23 20 17 17 17 17 18
16 13 13 11 13 16 15 13 15 14 10 7 11 16 17 17 18 18 18 18 19 19 22 23 21 20 19 16 17 19 20 20 19 19 19 20 19 18 15 22 18 14 18 19 21 19 17 18 18
14 19 15 16 14 15 15 13 12 12 11 8 7 12 16 18 17 16 18 20 21 20 22 24 23 21 18 18 17 19 20 21 20 20 24 24 22 21 23 19 23 24 23 21 25 23 23 22 20
17 23 24 19 14 16 19 15 11 6 7 9 7 10 12 15 18 18 20 19 18 19 19 20 20 19 18 18 18 19 21 21 22 23 26 26 27 27 28 27 26 25 24 25 25 24 24 24 28
23 29 24 18 19 13 15 16 14 9 5 5 9 8 11 16 16 18 19 20 17 18 18 17 17 16 17 17 17 18 19 21 23 23 24 26 27 27 28 27 27 27 26 27 28 27 25 26 28
27 24 19 14 16 19 17 18 18 19 16 3 8 6 12 19 19 20 17 17 17 16 15 14 14 14 16 15 16 15 17 22 24 24 25 25 26 27 29 29 29 28 25 25 26 27 29 30 31
30 29 27 25 18 18 14 9 17 14 13 6 7 8 20 24 19 18 17 16 16 15 14 13 11 12 12 13 14 14 17 19 21 21 23 22 24 25 28 31 34 36 37 32 31 32 31 31 32
39 34 32 25 18 14 9 9 13 14 6 11 8 13 18 22 23 18 15 13 14 13 12 11 11 11 11 10 13 13 16 17 19 20 21 22 23 24 29 33 37 41 42 35 34 37 37 35 37
34 37 31 24 17 15 14 16 4 7 4 5 6 12 12 18 18 16 14 13 12 12 10 9 8 8 9 11 11 13 15 16 17 17 20 22 23 26 29 33 36 38 42 44 41 40 40 39 43
32 42 20 23 22 17 12 12 14 4 6 6 9 12 13 13 15 14 12 10 8 7 7 5 5 7 8 10 10 11 13 14 14 15 18 19 22 27 33 32 36 40 40 44 42 44 42 41 41
40 25 25 31 25 19 21 18 10 11 7 7 16 12 11 12 12 10 9 8 6 3 3 3 4 5 7 8 8 9 10 11 11 13 18 21 20 29 35 37 38 44 45 46 47 49 42 39 39
44 39 34 30 26 25 29 23 23 18 10 8 8 11 12 8 9 8 7 6 4 1 1 3 5 7 7 7 7 8 10 9 11 14 17 22 25 28 35 41 40 45 49 47 51 47 46 43 42
46 39 34 36 33 31 31 30 23 22 20 14 6 5 5 10 8 7 4 3 1 1 3 4 6 8 9 8 7 9 11 12 13 16 20 23 26 30 34 40 45 47 52 51 51 49 52 48 45
Wind_Direction
93 76 77 80 33 36 61 94 75 73 72 69 93 110 134 133 148 154 152 168 147 146 144 142 141 134 148 157 156 155 149 141 116 99 82 61 51 45 32 34 39 37 38 37 40 46 50 56 56
94 83 70 75 44 77 82 80 91 86 90 96 87 97 135 161 186 203 186 180 152 158 167 151 154 164 170 185 179 167 116 59 12 35 34 38 14 24 14 15 18 20 24 29 32 34 40 44 45
96 104 82 124 99 84 94 98 104 104 117 93 85 78 129 171 185 180 164 163 180 173 165 159 161 181 188 199 222 278 355 338 342 358 8 5 7 358 359 356 1 6 12 15 24 23 29 31 33
101 98 88 101 103 97 96 96 104 103 99 100 87 91 77 112 147 144 132 150 164 172 164 170 179 201 206 219 238 284 305 301 328 335 348 354 9 345 349 343 354 358 13 22 31 29 25 26 24
82 97 113 89 77 88 98 105 105 119 114 107 98 83 74 121 131 129 120 146 173 177 177 181 202 212 225 245 247 271 285 289 307 301 326 320 340 321 332 335 350 356 0 353 1 1 4 28 15
96 88 104 88 79 87 96 101 114 120 125 117 109 98 95 107 169 154 127 130 153 171 172 185 211 234 242 249 262 257 269 283 291 290 289 280 313 303 326 331 337 333 326 326 333 338 311 300 335
80 87 92 94 81 81 87 77 93 108 130 129 125 134 121 108 167 181 177 139 145 150 146 171 207 230 245 251 256 269 295 295 300 285 288 300 313 280 306 328 315 321 318 318 330 321 302 300 282
53 88 85 73 67 61 55 61 64 86 102 126 142 186 159 130 145 197 159 163 151 148 132 149 198 222 242 250 263 284 302 291 293 298 265 285 258 262 282 295 298 301 301 332 336 324 308 300 298
81 76 73 72 66 66 65 73 69 59 63 132 164 170 150 146 158 172 195 194 181 197 153 151 158 156 205 232 290 280 285 298 299 291 313 311 303 266 299 301 302 318 37 3 345 10 358 354 337
75 95 81 69 62 52 53 79 71 64 62 70 92 179 170 169 170 171 179 155 153 175 161 151 158 135 134 135 143 154 11 354 0 359 4 7 353 324 322 344 358 334 47 10 23 24 37 44 35
109 71 65 68 68 65 72 69 59 56 53 70 82 136 165 180 173 167 165 144 173 161 169 183 160 161 158 147 144 88 51 42 48 47 34 24 22 13 32 26 19 26 48 39 29 37 35 27 24
96 83 70 60 61 58 56 56 64 68 70 79 107 153 154 170 174 166 162 156 155 180 182 174 163 158 135 127 147 120 68 68 57 52 41 31 22 37 35 28 35 40 66 43 19 28 30 17 13
70 66 74 71 79 68 73 71 74 82 84 90 102 139 149 154 161 161 153 157 164 163 145 155 155 144 137 126 108 98 84 75 66 61 46 37 36 50 47 39 40 46 44 32 26 15 8 15 11
104 93 123 104 88 78 73 70 69 63 77 97 103 99 105 134 153 150 146 151 146 140 138 143 149 144 129 112 110 102 89 71 57 39 16 7 20 33 37 35 37 36 30 28 19 5 359 8 359
128 147 146 111 99 90 77 80 76 61 75 112 114 110 109 116 129 137 142 148 142 143 141 132 125 132 119 111 101 90 83 72 54 47 33 356 256 62 44 37 27 30 25 11 0 351 346 342 341
169 167 157 152 85 107 112 97 86 76 85 106 112 110 112 117 128 133 138 138 134 133 131 124 121 119 111 100 98 92 82 72 60 55 52 52 70 47 29 18 9 6 6 357 351 342 337 333 332
211 186 172 183 201 154 123 105 90 75 114 108 111 114 115 119 120 123 125 124 126 122 127 128 121 110 104 99 96 91 80 72 66 63 62 63 64 54 43 34 20 25 19 8 3 4 3 353 345
230 216 163 168 151 137 122 119 108 84 96 119 119 117 116 116 120 125 124 122 117 108 117 126 121 117 113 107 95 90 86 80 74 71 63 56 55 47 33 19 29 28 6 359 360 2 354 353 349
198 188 162 147 139 129 118 125 113 96 102 113 136 129 124 123 125 126 124 122 112 97 110 124 126 118 114 107 99 94 87 83 76 69 62 59 50 37 44 39 40 10 359 3 359 355 4 353 347
200 202 174 154 133 129 107 94 105 101 109 123 175 150 140 132 132 132 125 122 112 104 114 118 120 118 111 101 96 91 88 76 68 61 57 52 43 38 36 27 19 12 9 0 3 356 357 354 356
197 165 166 155 155 120 110 84 60 60 99 128 175 166 154 145 142 137 133 122 118 110 108 106 103 102 99 96 90 81 73 75 66 57 52 49 40 32 31 25 17 15 7 1 2 358 354 356 348
165 153 147 147 156 152 129 107 98 54 58 140 147 178 161 156 144 142 142 127 121 112 104 100 101 101 97 86 78 73 70 63 64 59 52 45 40 37 36 31 27 19 9 3 357 353 350 348 345
166 147 154 144 158 169 134 114 97 75 48 153 156 212 182 161 149 149 142 135 123 110 105 106 102 93 84 78 73 64 60 62 54 46 45 38 34 30 27 23 16 8 1 356 353 350 347 343 337
172 176 188 195 184 155 131 118 108 91 45 42 157 144 141 153 148 142 137 132 120 112 110 101 92 83 77 67 64 58 54 48 47 45 42 37 26 19 15 12 5 2 355 350 350 347 342 334 329
183 180 188 183 169 148 162 149 106 92 63 20 160 142 121 139 133 129 142 142 127 123 111 96 82 72 61 54 55 52 47 40 38 41 36 29 19 10 10 5 2 3 3 353 345 345 338 338 339
181 189 173 169 146 155 174 144 97 114 57 330 181 161 159 141 141 145 154 150 140 124 109 95 81 65 54 48 45 43 43 36 36 31 28 26 19 9 7 4 6 3 360 358 352 345 338 339 338
191 183 172 187 180 177 196 186 140 108 176 203 194 176 163 160 154 163 156 154 136 127 114 93 67 52 38 32 28 27 31 34 29 24 22 19 10 4 358 355 2 357 356 355 352 350 345 337 335
207 198 191 172 175 185 202 207 168 167 97 160 165 165 167 170 171 167 161 157 154 136 88 41 24 28 26 25 24 18 22 25 14 13 16 10 12 359 357 349 354 353 353 354 352 349 346 349 349
201 193 194 194 205 203 193 197 191 167 166 137 106 163 165 171 174 159 166 178 170 102 330 338 351 6 7 5 0 7 15 15 7 4 3 2 356 353 353 345 347 347 346 350 352 352 353 345 341
202 201 196 200 198 202 205 192 183 174 177 170 187 130 147 167 181 181 174 201 351 333 341 350 10 359 347 339 336 359 3 0 1 356 358 351 347 345 346 340 344 345 342 349 349 351 347 345 343
Height
5895 5895 5895 5896 5897 5893 5892 5893 5894 5896 5894 5895 5896 5897 5898 5899 5901 5903 5901 5903 5904 5904 5905 5906 5907 5909 5910 5910 5909 5910 5911 5911 5912 5913 5912 5913 5912 5911 5909 5909 5908 5909 5909 5907 5907 5906 5905 5903 5901
5897 5897 5897 5897 5898 5895 5895 5895 5896 5897 5898 5898 5898 5900 5900 5900 5901 5901 5902 5903 5904 5906 5906 5907 5908 5910 5911 5911 5911 5912 5912 5913 5913 5913 5913 5914 5913 5912 5911 5911 5910 5910 5910 5909 5909 5907 5906 5904 5903
5898 5900 5901 5899 5897 5896 5897 5896 5897 5897 5899 5899 5900 5899 5900 5900 5900 5901 5903 5904 5905 5907 5908 5909 5910 5911 5912 5913 5913 5914 5914 5914 5914 5915 5914 5914 5914 5914 5913 5913 5911 5910 5909 5909 5909 5908 5906 5904 5903
5898 5899 5901 5900 5898 5898 5899 5899 5900 5900 5901 5901 5901 5900 5901 5900 5901 5902 5903 5905 5907 5908 5909 5910 5911 5913 5914 5915 5916 5917 5916 5916 5916 5917 5916 5916 5915 5915 5913 5913 5912 5910 5908 5908 5907 5906 5905 5904 5902
5898 5900 5900 5898 5898 5899 5899 5900 5900 5900 5901 5901 5902 5901 5902 5903 5905 5904 5905 5907 5909 5910 5912 5913 5914 5914 5916 5917 5917 5918 5918 5917 5917 5917 5916 5915 5914 5914 5914 5913 5912 5909 5907 5907 5907 5906 5904 5903 5899
5899 5900 5900 5897 5898 5899 5899 5901 5900 5900 5901 5902 5903 5904 5904 5905 5907 5907 5907 5909 5910 5912 5913 5915 5916 5916 5917 5918 5918 5918 5918 5918 5918 5918 5916 5916 5916 5915 5914 5914 5912 5910 5909 5908 5907 5906 5904 5902 5900
5900 5903 5902 5899 5897 5898 5899 5900 5900 5901 5902 5902 5904 5904 5905 5906 5909 5909 5909 5911 5913 5913 5915 5916 5916 5917 5918 5919 5918 5919 5919 5919 5919 5918 5917 5916 5916 5915 5916 5914 5912 5911 5909 5907 5906 5904 5902 5900 5897
5904 5904 5903 5902 5899 5899 5899 5900 5902 5902 5902 5901 5903 5905 5906 5906 5909 5911 5911 5913 5914 5915 5915 5916 5917 5917 5917 5918 5919 5919 5919 5919 5919 5918 5915 5915 5913 5916 5916 5913 5910 5909 5908 5907 5904 5901 5899 5898 5895
5905 5904 5904 5904 5902 5901 5901 5903 5903 5902 5902 5903 5903 5904 5904 5905 5908 5910 5912 5913 5914 5914 5916 5916 5916 5917 5918 5919 5921 5920 5918 5918 5919 5917 5916 5915 5914 5916 5916 5913 5910 5907 5906 5905 5903 5900 5896 5896 5895
5907 5904 5905 5903 5902 5902 5904 5905 5903 5903 5903 5902 5902 5902 5903 5905 5907 5909 5910 5912 5914 5915 5916 5917 5917 5918 5918 5920 5919 5919 5919 5919 5919 5918 5917 5915 5916 5915 5914 5911 5908 5906 5906 5905 5904 5902 5899 5898 5897
5906 5905 5904 5903 5904 5905 5904 5903 5904 5903 5903 5902 5902 5901 5902 5904 5907 5910 5910 5912 5913 5914 5916 5917 5918 5919 5919 5920 5920 5922 5921 5920 5919 5918 5916 5916 5915 5915 5915 5913 5910 5907 5907 5907 5905 5902 5900 5900 5899
5906 5904 5904 5905 5906 5906 5906 5906 5906 5904 5904 5902 5901 5902 5902 5902 5906 5908 5910 5912 5913 5915 5916 5917 5918 5919 5921 5921 5922 5925 5924 5921 5919 5919 5918 5916 5916 5916 5915 5915 5911 5910 5908 5908 5906 5903 5902 5902 5901
5904 5904 5904 5906 5906 5907 5908 5907 5907 5905 5904 5903 5903 5903 5902 5903 5906 5908 5910 5912 5913 5915 5916 5917 5920 5922 5923 5923 5924 5925 5923 5922 5921 5920 5919 5918 5917 5916 5916 5917 5915 5912 5911 5909 5905 5903 5903 5902 5902
5906 5907 5907 5906 5908 5908 5907 5907 5908 5907 5905 5905 5906 5906 5904 5905 5907 5909 5911 5913 5914 5916 5918 5920 5921 5923 5924 5924 5926 5926 5925 5922 5923 5921 5919 5918 5918 5919 5918 5918 5916 5913 5911 5908 5906 5904 5903 5900 5900
5907 5910 5910 5909 5909 5907 5909 5909 5910 5910 5909 5908 5907 5907 5906 5907 5909 5911 5913 5914 5915 5918 5920 5921 5922 5923 5925 5926 5927 5926 5925 5925 5924 5922 5919 5917 5918 5920 5920 5918 5916 5914 5912 5910 5908 5906 5903 5901 5899
5907 5910 5911 5911 5911 5909 5910 5911 5910 5912 5912 5910 5908 5909 5910 5911 5912 5913 5915 5916 5917 5920 5921 5922 5924 5926 5927 5927 5927 5927 5927 5927 5926 5923 5920 5919 5919 5920 5919 5917 5915 5913 5912 5910 5909 5906 5903 5902 5901
5906 5911 5912 5912 5912 5912 5912 5911 5911 5913 5914 5913 5911 5912 5913 5914 5915 5915 5917 5918 5920 5922 5923 5924 5925 5926 5928 5929 5929 5929 5930 5929 5928 5925 5925 5923 5920 5920 5919 5917 5914 5913 5911 5908 5906 5904 5901 5899 5898
5909 5911 5913 5914 5913 5912 5912 5911 5910 5912 5915 5915 5915 5914 5915 5916 5917 5918 5919 5921 5922 5922 5922 5924 5925 5928 5930 5931 5932 5931 5932 5930 5930 5928 5927 5925 5924 5924 5923 5920 5916 5914 5911 5908 5905 5903 5902 5900 5899
5906 5910 5912 5913 5913 5912 5912 5913 5912 5913 5915 5917 5917 5916 5917 5919 5920 5921 5922 5923 5923 5923 5923 5925 5927 5929 5931 5932 5934 5934 5934 5933 5931 5929 5930 5928 5927 5925 5922 5919 5918 5916 5913 5910 5907 5905 5903 5901 5898
5905 5907 5910 5914 5912 5912 5912 5914 5913 5913 5915 5916 5918 5918 5918 5919 5922 5924 5925 5926 5926 5926 5928 5929 5930 5932 5933 5934 5936 5936 5935 5933 5933 5932 5931 5928 5927 5925 5922 5919 5917 5914 5911 5909 5907 5905 5900 5898 5896
5903 5904 5908 5910 5912 5914 5914 5914 5915 5914 5915 5917 5918 5919 5919 5920 5922 5925 5927 5928 5929 5930 5931 5932 5933 5934 5935 5936 5936 5937 5936 5935 5934 5932 5931 5929 5927 5924 5920 5919 5917 5914 5911 5908 5906 5903 5899 5895 5893
5904 5906 5906 5910 5912 5915 5915 5915 5915 5916 5915 5917 5918 5920 5919 5921 5923 5927 5929 5931 5932 5933 5934 5935 5935 5936 5937 5936 5937 5937 5936 5935 5934 5933 5933 5931 5929 5927 5923 5922 5918 5916 5913 5909 5905 5903 5899 5895 5892
5906 5905 5908 5910 5912 5914 5916 5917 5917 5916 5917 5919 5919 5921 5919 5921 5924 5927 5931 5933 5934 5934 5936 5937 5937 5938 5937 5937 5937 5937 5936 5935 5933 5933 5933 5931 5929 5926 5923 5921 5919 5916 5913 5908 5904 5901 5897 5893 5890
5903 5903 5903 5905 5909 5913 5915 5918 5918 5917 5917 5920 5921 5921 5918 5922 5926 5929 5932 5934 5934 5935 5937 5937 5938 5938 5938 5938 5938 5938 5936 5935 5935 5935 5934 5932 5929 5926 5923 5920 5917 5913 5909 5905 5900 5896 5893 5889 5885
5895 5898 5901 5904 5909 5914 5913 5917 5919 5917 5918 5921 5923 5925 5924 5924 5927 5930 5934 5935 5936 5936 5938 5938 5938 5939 5938 5939 5938 5938 5937 5935 5935 5934 5934 5932 5929 5926 5924 5920 5915 5911 5907 5902 5898 5894 5889 5883 5879
5891 5897 5898 5903 5908 5910 5912 5915 5918 5918 5919 5919 5924 5925 5926 5927 5929 5931 5934 5936 5937 5937 5937 5938 5939 5939 5939 5939 5938 5938 5937 5936 5935 5934 5933 5932 5929 5926 5923 5920 5915 5911 5906 5901 5896 5891 5885 5879 5873
5887 5891 5899 5900 5901 5904 5908 5912 5914 5916 5917 5919 5924 5926 5927 5928 5930 5932 5934 5936 5936 5937 5938 5939 5939 5939 5939 5938 5937 5937 5937 5936 5935 5934 5933 5932 5929 5926 5922 5918 5914 5910 5904 5899 5893 5887 5880 5874 5868
5882 5893 5892 5892 5895 5898 5906 5910 5914 5918 5920 5921 5924 5926 5927 5929 5931 5933 5935 5936 5937 5938 5938 5939 5939 5939 5939 5938 5937 5937 5936 5935 5934 5934 5932 5930 5928 5925 5920 5916 5912 5908 5902 5897 5890 5883 5876 5870 5863
5875 5879 5884 5889 5891 5896 5903 5908 5912 5915 5921 5923 5923 5925 5927 5929 5931 5933 5935 5936 5937 5938 5939 5939 5939 5938 5938 5938 5937 5936 5935 5934 5934 5933 5931 5929 5926 5923 5919 5913 5910 5905 5900 5894 5887 5880 5872 5865 5859
5871 5876 5882 5885 5890 5892 5898 5904 5908 5912 5917 5922 5923 5924 5926 5927 5930 5932 5934 5935 5936 5938 5939 5939 5938 5938 5938 5937 5936 5935 5934 5933 5932 5931 5929 5927 5924 5920 5918 5912 5907 5902 5896 5890 5883 5876 5869 5861 5854